Welcome to the New NWS' Forecast!
Most changes are behind the scenes, but click here for differences you might notice.

Regional Weather Roundup (RWR)

Issued by Gray - Portland, ME (GYX)

                            
000
ASUS41 KGYX 171110
RWRGYX
WEATHER ROUNDUP FOR MAINE AND NEW HAMPSHIRE
NATIONAL WEATHER SERVICE GRAY ME
700 AM EDT WED OCT 17 2018

MEZ002-005-006-010-012-015-018-020-021-024-026-027-029-171200-
MAINE
  
CITY           SKY/WX    TMP DP  RH WIND       PRES   REMARKS
PORTLAND       CLOUDY    43  35  73 W6        29.87F                  
SANFORD        CLOUDY    36  35  96 SW5       29.87F                  
BAR HARBOR     CLOUDY    47  40  76 S9        29.86F                  
WISCASSET      CLOUDY    39  39 100 CALM      29.88F                  
ROCKLAND       FAIR      42  38  85 W3        29.86F                  
FRYEBURG       CLOUDY    38  35  89 S5        29.84F                  
LEWISTONAUBURN CLOUDY    43  36  76 S7        29.84F                  
AUGUSTA        CLOUDY    39  35  86 S5        29.85F                  
WATERVILLE     CLOUDY    38  35  89 SW5       29.82F                  
BANGOR         CLOUDY    42  33  70 S8        29.84F                  
GREENVILLE       N/A     37  29  72 CALM      29.75F                  
MILLINOCKET    CLOUDY    36  30  79 S5        29.81F                  
HOULTON        CLOUDY    35  29  78 S7        29.78F                  
PRESQUE ISLE   CLOUDY    35  29  78 SW3       29.75F                  
FRENCHVILLE    CLOUDY    36  29  75 S8        29.67F                  
CARIBOU        CLOUDY    36  29  75 S5        29.73F                  
$$

NHZ002-005-008-009-011-012-014-171200-
NEW HAMPSHIRE
  
CITY           SKY/WX    TMP DP  RH WIND       PRES   REMARKS
PORTSMOUTH     MOCLDY    41  36  81 S9        29.86F                  
ROCHESTER      CLOUDY    39  37  92 CALM      29.86F                  
NASHUA         FAIR      38  37  97 CALM      29.90F                  
MANCHESTER     MOCLDY    41  36  82 S8        29.87F                  
CONCORD        CLOUDY    38  36  92 SE3       29.87F                  
LACONIA        CLOUDY    43  34  70 SW6       29.85F                  
PLYMOUTH       CLOUDY    34  33  97 CALM      29.86S                  
BERLIN         FRZ RAIN  34  33  96 CALM      29.80F                  
WHITEFIELD     LGT RAIN  35  34  96 CALM      29.81F                  
JAFFREY        FAIR      32  32 100 CALM      29.88F                  
KEENE          FAIR      33  33 100 CALM      29.90F                  
LEBANON        MOCLDY    41  33  73 CALM      29.85R                  
MT WASHINGTON  SNOWSHWR  23  23 100 W46         N/A  VSB 0   WCI   2  
$$

VTZ005-007-008-171200-
VERMONT
  
CITY           SKY/WX    TMP DP  RH WIND       PRES   REMARKS
ST JOHNSBURY     N/A     38  37  97 MISG      29.79F                  
MONTPELIER     LGT RAIN  43  36  76 SW8       29.82F                  
BURLINGTON     CLOUDY    46  35  65 S12       29.79F                  
$$

MAZ007-012-024-CTZ003-RIZ002-NYZ038-NYZ072-171200-
SOUTHERN NEW ENGLAND AND NY
  
CITY           SKY/WX    TMP DP  RH WIND       PRES   REMARKS
BOSTON         FAIR      44  36  73 SW10      29.92F                  
WORCESTER      FAIR      36  33  89 W9        29.90F                  
NANTUCKET      FAIR      51  42  71 W6        29.96F                  
PROVIDENCE     MOCLDY    41  36  82 W6        29.95F                  
HARTFORD       FAIR      37  35  92 S6        29.93F                  
ALBANY         CLOUDY    43  36  76 S7        29.92S                  
NEW YORK CITY  FAIR      51  37  58 SW10      29.99F                  
$$

ANZ081-ANZ082-ANZ150-NHZ014-MEZ023>029-171200-
COASTAL MARINE OBSERVATIONS
  
STATION/POSITION TIME  TEMP    WIND        PRES    WAVE
                       AIR SEA DIR/SP/G            HT/PER
                 (UTC) (F)     (DEG/KT/KT) (MB)    (FT/S)
MOUNT DESERT ROC 1100   51     200/ 13/ 15 1011.7F
MATINICUS ROCK   1000   51     250/ 14/ 15 1011.7F
ISLE OF SHOALS   1000   48     230/ 13/ 14 1012.4F
JEFFREYS LEDGE   1006      56                N/A     2/ 4
$$

.............KEY..............
   WCI - WIND CHILL
   TC  - TEMPERATURE IN CELSIUS
   VSB - VISIBILITY IN MILES
   HX  - HEAT INDEX
   FAIR- INDICATES FEW OR NO CLOUDS BELOW 12,000 FT, WITH NO 
         SIGNIFICANT WEATHER AND/OR OBSTRUCTIONS TO VISIBILITY.